Powrót do katalogu

ONEWEB-0674

AktywnyŁącznośćPO
NORAD 55833·PAYLOAD·🇬🇧 United Kingdom

Wystrzelony Mar 9, 2023 z Cape Canaveral Space Force Station

Loading…

Następne Przeloty (najbliższe 24 godziny)

TLE

ŚwieżeSource: CelesTrak SupGP

Epoka: Sep 14, 2026, 18:39 UTC

1 55833C 23029AP  26257.77761991 -.00001265  00000+0 -34170-2 0  2578
2 55833  87.8899 271.8461 0002347  93.3980 301.8663 13.14502772    12

Śledź ONEWEB-0674 w czasie rzeczywistym z AllMySat

Download on the App Store